Weather in Yazula

Russia / Altai Republic     50°36′59″N   88°46′22″E
temp.,
°C
wind,
m/s
gust,
m/s
humid.,
%
clouds,
%
prec.,
mm/h
press.,
hPa
HPBL,
m
21 april, wed
wed2101:00−10nnw2391100 2.3 1018336
04:00−11nnw2290100 0.6 1018276
07:00−11nnw119099 0.8 1019204
10:00−8nw116886 0.0 1016603
13:00−4wnw2355100 0.1 10121225
16:00−3nw3353100 0.1 10111354
19:00−4wnw3557100 0.1 1012736
22:00−8wnw1386100 0.0 101896
22 april, thu
thu2201:00−9nw2393100 0.3 1020327
04:00−10nw2390100 0.4 1023355
07:00−11nnw2288100 0.4 1026324
10:00−8nnw2266100 0.1 10251018
13:00−6nnw2264100 0.4 10241172
16:00−5n225899 0.6 10241188
19:00−6n2386100 1.1 1027415
22:00−8n239099 0.9 1030410
23 april, fri
fri2301:00−9n2392100 1.8 1032391
04:00−10n2292100 0.5 1033251
07:00−10n1289100 0.7 1034244
10:00−8ene1268100 0.1 1032845
13:00−5e115896 0.3 10291184
16:00−4e1159100 0.4 10271046
19:00−5se0182100 1.8 1028401
22:00−6ssw0195100 2.7 1029254
24 april, sat
sat2401:00−8nnw1295100 6.4 1030298
04:00−9nw1295100 2.6 1030249
07:00−9nw1293100 3.8 1030318
10:00−7nw2280100 0.8 1028845
13:00−6wnw3366100 1.9 10261245
16:00−5wnw2363100 1.3 10251204
19:00−7w1282100 2.8 1026428
22:00−8w2595100 3.5 1028447
25 april, sun
sun2501:00−10wnw2596100 5.3 1031323
04:00−11wnw1298100 0.4 103291
07:00−13wnw1199100 0.5 103545
10:00−8nw2375100 0.1 10311042
13:00−6nw4467100 0.3 10281508
16:00−4nw4462100 0.2 10261512
19:00−6n127734 0.6 102878
22:00−15se229162 0.1 103812